Address 0x429ccdb016fbb2df7abce903e7a5f37d390dd0b8

 
 
Txn Hash Method
Block
From
To
Value [Txn Fee]
0x56f2ec4a98b374fc3c7dc259762638d1520176ffeb5e1825b499f8a58b7bdf2b0x60cb6268318667202022-08-14 3:42:064 mins ago0x429ccdb016fbb2df7abce903e7a5f37d390dd0b8OUT 0x036bcd70fba687969934c1014e5919fed2f7e9770 MATIC0.013630980005 30.000000012
0x77b99226f696d5faad271c2e53e9f2494b9eb56a9f7260d2292689ad98670e540x60cb6268318665742022-08-14 3:37:069 mins ago0x429ccdb016fbb2df7abce903e7a5f37d390dd0b8OUT 0x036bcd70fba687969934c1014e5919fed2f7e9770 MATIC0.013915980008 30.000000018
0x079fa8ac21b5a69edacb087d5868c6b93d5211f9036339bf603ad046282384130x60cb6268318664302022-08-14 3:32:0614 mins ago0x429ccdb016fbb2df7abce903e7a5f37d390dd0b8OUT 0x036bcd70fba687969934c1014e5919fed2f7e9770 MATIC0.013873470008 30.000000018
0x9f514dcad03922f9e9d785614732a44b78c06d14851f45b303afb027402645f90x60cb6268318662942022-08-14 3:27:0819 mins ago0x429ccdb016fbb2df7abce903e7a5f37d390dd0b8OUT 0x036bcd70fba687969934c1014e5919fed2f7e9770 MATIC0.014309640034 30.000000073
0x522a4c3e242f84f87e489f86030525e1e19103c5624c8821f3400fe3ea3317b80x60cb6268318662002022-08-14 3:22:0624 mins ago0x429ccdb016fbb2df7abce903e7a5f37d390dd0b8OUT 0x036bcd70fba687969934c1014e5919fed2f7e9770 MATIC0.013891410006 30.000000013
0xefeb608a5452e0a1bed2e11d25fc52710dd02ac97cdcead054c4bff0c21d16a40x60cb6268318660542022-08-14 3:17:0629 mins ago0x429ccdb016fbb2df7abce903e7a5f37d390dd0b8OUT 0x036bcd70fba687969934c1014e5919fed2f7e9770 MATIC0.014040480005 30.000000012
0xcb683ea33baef3feaacb881829c148ec1f83da9155be36855e70355cb0d4a39a0x60cb6268318659462022-08-14 3:12:0834 mins ago0x429ccdb016fbb2df7abce903e7a5f37d390dd0b8OUT 0x036bcd70fba687969934c1014e5919fed2f7e9770 MATIC0.013890690013 30.00000003
0xd0df1b6a34478bd3ede42d4b23c2628d785fbb90b4eea78fa42a4c98895749ee0x60cb6268318658262022-08-14 3:07:0639 mins ago0x429ccdb016fbb2df7abce903e7a5f37d390dd0b8OUT 0x036bcd70fba687969934c1014e5919fed2f7e9770 MATIC0.014134980023 30.000000049
0xfb92ce2d60891ebec3f3309e95f0486e09b37098f649d0e5af198bde33887f060x60cb6268318656802022-08-14 3:02:0644 mins ago0x429ccdb016fbb2df7abce903e7a5f37d390dd0b8OUT 0x036bcd70fba687969934c1014e5919fed2f7e9770 MATIC0.014408010006 30.000000013
0xcfe6b0dafed388e166dc3d516177399b968189254a4a26df93b5022cbb9ae5930x60cb6268318655362022-08-14 2:57:1049 mins ago0x429ccdb016fbb2df7abce903e7a5f37d390dd0b8OUT 0x036bcd70fba687969934c1014e5919fed2f7e9770 MATIC0.014352210006 30.000000014
0x950294d95fcae18bbab6e8a9b4fb14319fa5aace02ccdb0a75e70c20a52b03340x60cb6268318653902022-08-14 2:52:0654 mins ago0x429ccdb016fbb2df7abce903e7a5f37d390dd0b8OUT 0x036bcd70fba687969934c1014e5919fed2f7e9770 MATIC0.013912650006 30.000000013
0xd3165688972c58f17f5ecca65e23b28afb41c33b2cff8850d7318d2b31f8a0610x60cb6268318652442022-08-14 2:47:0659 mins ago0x429ccdb016fbb2df7abce903e7a5f37d390dd0b8OUT 0x036bcd70fba687969934c1014e5919fed2f7e9770 MATIC0.014053470006 30.000000014
0x1ec5a0ddaaf78dfdc7e554fb745232f5bcb0bc8966de754bef22c76588c7e02f0x60cb6268318650972022-08-14 2:42:041 hr 4 mins ago0x429ccdb016fbb2df7abce903e7a5f37d390dd0b8OUT 0x036bcd70fba687969934c1014e5919fed2f7e9770 MATIC0.014184840006 30.000000014
0x81cb3884c3297582b582b196dbf4f54092097b4c501f67eebc437dd37fbbf61f0x60cb6268318649542022-08-14 2:37:061 hr 9 mins ago0x429ccdb016fbb2df7abce903e7a5f37d390dd0b8OUT 0x036bcd70fba687969934c1014e5919fed2f7e9770 MATIC0.014224860006 30.000000014
0xc121fd20a9e3a47dae2a7a11e01f43618647b201515e38494d08dec0bd9a9c2a0x60cb6268318648292022-08-14 2:32:061 hr 14 mins ago0x429ccdb016fbb2df7abce903e7a5f37d390dd0b8OUT 0x036bcd70fba687969934c1014e5919fed2f7e9770 MATIC0.014057010006 30.000000013
0xc23ba95f4802fdccaa2db8e74d734a170a15d6a6031aa944aa9b7da79aeb938b0x60cb6268318646832022-08-14 2:27:061 hr 19 mins ago0x429ccdb016fbb2df7abce903e7a5f37d390dd0b8OUT 0x036bcd70fba687969934c1014e5919fed2f7e9770 MATIC0.01428987003 30.000000063
0x3135a7297fff28035144351add817941542adce5da097785f69f9a13c65e1ec00x60cb6268318645872022-08-14 2:22:061 hr 24 mins ago0x429ccdb016fbb2df7abce903e7a5f37d390dd0b8OUT 0x036bcd70fba687969934c1014e5919fed2f7e9770 MATIC0.014161620069 30.000000148
0x2d0acc10cf6498a80b36fdfeeb650cae4f15798721cf6b8ae6bc6f6ebad571940x60cb6268318644522022-08-14 2:17:041 hr 29 mins ago0x429ccdb016fbb2df7abce903e7a5f37d390dd0b8OUT 0x036bcd70fba687969934c1014e5919fed2f7e9770 MATIC0.014434020006 30.000000014
0xb89cc159dc2288e5168f5084f52dfdbe6d9b7f1c95538311a23b368d899abafb0x60cb6268318643092022-08-14 2:12:061 hr 34 mins ago0x429ccdb016fbb2df7abce903e7a5f37d390dd0b8OUT 0x036bcd70fba687969934c1014e5919fed2f7e9770 MATIC0.014233770006 30.000000013
0xb1514f7e140cdb3d11ed7792991df44b90eddd48d4ecedc1e8f4bfb272a6c04e0x60cb6268318641632022-08-14 2:07:061 hr 39 mins ago0x429ccdb016fbb2df7abce903e7a5f37d390dd0b8OUT 0x036bcd70fba687969934c1014e5919fed2f7e9770 MATIC0.014090340007 30.000000015
0x9425e66b73888a63a3993216f7a64c73f4e8e3be7aca2d77c8fa60bd4cab7bda0x60cb6268318640172022-08-14 2:02:061 hr 44 mins ago0x429ccdb016fbb2df7abce903e7a5f37d390dd0b8OUT 0x036bcd70fba687969934c1014e5919fed2f7e9770 MATIC0.014475090005 30.000000012
0xe560d7a24b4c914cca1afce09462b507bf6bc1f66c2f837cfc7b88bd423d568b0x60cb6268318638732022-08-14 1:57:101 hr 49 mins ago0x429ccdb016fbb2df7abce903e7a5f37d390dd0b8OUT 0x036bcd70fba687969934c1014e5919fed2f7e9770 MATIC0.014519070005 30.000000012
0x1f145f979f04b8e695399d1be0cb590dbe94387697ea3a4ab857e46782f5a61c0x60cb6268318637272022-08-14 1:52:061 hr 54 mins ago0x429ccdb016fbb2df7abce903e7a5f37d390dd0b8OUT 0x036bcd70fba687969934c1014e5919fed2f7e9770 MATIC0.014135280063 30.000000135
0xd40afeb3a1f452a60065a9c839059624717e5145b936efd40be5d4b9fb4cd1610x60cb6268318636292022-08-14 1:47:061 hr 59 mins ago0x429ccdb016fbb2df7abce903e7a5f37d390dd0b8OUT 0x036bcd70fba687969934c1014e5919fed2f7e9770 MATIC0.014470560144 30.000000299
0xfc4e918263bf847a75e4910a6527279f3c7856d260eed8d8a02099094591e5a40x60cb6268318635062022-08-14 1:42:062 hrs 4 mins ago0x429ccdb016fbb2df7abce903e7a5f37d390dd0b8OUT 0x036bcd70fba687969934c1014e5919fed2f7e9770 MATIC0.014264670023 30.000000049
[ Download CSV Export 
Parent Txn Hash Block From To Value
Loading

Contract Name:
0 MATIC

Compiler Version
0

Optimization Enabled:
0 MATIC

Other Settings:
-NA-
Block Transaction Gas Used Reward
Age Block Fee Address BC Fee Address Voting Power Jailed Incoming
Block Uncle Number Difficulty Gas Used Reward
Loading
Loading
Make sure to use the "Vote Down" button for any spammy posts, and the "Vote Up" for interesting conversations.